FW2417 Weather Reports


Display with metric or nautical units.
time (UTC)temp
F
wind
direction
speed
MPH
gust
MPH
rain 1hr
in
rain 24hr
in
rain mn
in
humidity
%
barometer
mb
20260902064602 73 78 0.0 1.0 0.00 0.00 0.00 68 1019.1
20260902063101 73 79 0.0 1.0 0.00 0.00 0.00 68 1019.2
20260902061605 72 86 0.0 1.0 0.00 0.00 0.00 65 1019.1
20260902060105 72 54 0.0 1.0 0.00 0.00 0.00 65 1019.2
20260902054607 73 24 0.0 1.0 0.00 0.00 0.00 66 1019.1
20260902053105 73 12 0.0 1.0 0.00 0.00 0.00 66 1019.0
20260902051604 74 13 0.0 1.0 0.00 0.00 0.00 66 1019.1
20260902050059 74 184 0.0 1.0 0.00 0.00 0.00 67 1019.0
20260902044559 74 184 0.0 1.0 0.00 0.00 0.00 65 1019.0
20260902043047 74 189 0.0 0.0 0.00 0.00 0.00 65 1018.9
20260902041542 75 188 0.0 1.0 0.00 0.00 0.00 66 1018.8
20260902040009 75 188 0.0 0.0 0.00 0.00 0.00 67 1018.8
20260902034534 75 188 0.0 1.0 0.00 0.00 0.00 65 1018.6
20260902033031 76 193 0.0 0.0 0.00 0.00 0.00 63 1018.7
20260902031538 76 193 0.0 0.0 0.00 0.00 0.00 63 1018.8
20260902030004 76 193 0.0 0.0 0.00 0.00 0.00 60 1018.8
20260902024617 76 193 0.0 1.0 0.00 0.00 0.00 59 1018.8
20260902023004 76 193 0.0 2.0 0.00 0.00 0.00 59 1019.0
20260902021501 76 200 0.0 4.0 0.00 0.00 0.00 58 1019.0
20260902020113 76 179 1.0 4.0 0.00 0.00 0.00 57 1019.2
20260902014612 75 211 1.0 4.0 0.00 0.00 0.00 57 1019.1
20260902013108 75 176 1.0 3.0 0.00 0.00 0.00 57 1019.2
20260902011640 75 166 1.0 3.0 0.00 0.00 0.00 56 1019.2
20260902004604 75 214 1.0 5.0 0.00 0.00 0.00 58 1019.6
20260902003108 76 160 2.0 5.0 0.00 0.00 0.00 58 1019.7
20260902001601 76 194 1.0 5.0 0.00 0.00 0.00 57 1019.7
20260902000059 76 212 0.0 3.0 0.00 0.00 0.00 57 1019.7
20260901234601 77 221 0.0 3.0 0.00 0.00 0.00 57 1019.7
20260901233049 77 238 0.0 3.0 0.00 0.00 0.00 56 1019.7
20260901231609 77 233 1.0 3.0 0.00 0.00 0.00 57 1019.7
20260901224551 77 295 0.0 5.0 0.00 0.00 0.00 60 1019.8
20260901223041 78 246 0.0 5.0 0.00 0.00 0.00 61 1020.0
20260901221606 79 250 1.0 7.0 0.00 0.00 0.00 61 1019.8
20260901220011 79 242 0.0 5.0 0.00 0.00 0.00 62 1019.6
20260901214612 80 232 1.0 7.0 0.00 0.00 0.00 61 1019.5
20260901213111 80 236 0.0 5.0 0.00 0.00 0.00 62 1019.4
20260901211612 81 245 1.0 5.0 0.00 0.00 0.00 63 1019.4
20260901210124 81 246 1.0 7.0 0.00 0.00 0.00 63 1019.4
20260901204612 81 238 2.0 8.0 0.00 0.00 0.00 62 1019.1
20260901203059 82 229 2.0 14.0 0.00 0.00 0.00 62 1018.9
20260901201556 83 205 3.0 12.0 0.00 0.00 0.00 61 1018.5
20260901200114 83 238 4.0 11.0 0.00 0.00 0.00 60 1018.1
20260901194554 84 234 4.0 11.0 0.00 0.00 0.00 57 1017.6
20260901193048 85 220 3.0 10.0 0.00 0.00 0.00 55 1017.2
20260901191519 86 241 2.0 11.0 0.00 0.00 0.00 51 1016.8
20260901190021 88 232 4.0 9.0 0.00 0.00 0.00 49 1016.6
20260901184539 89 219 1.0 8.0 0.00 0.00 0.00 44 1016.5
20260901183044 91 228 1.0 5.0 0.00 0.00 0.00 39 1016.3
20260901181536 92 246 0.0 4.0 0.00 0.00 0.00 37 1016.1
20260901180116 93 278 0.0 5.0 0.00 0.00 0.00 38 1016.1
20260901174616 94 349 0.0 6.0 0.00 0.00 0.00 39 1016.0
20260901173126 94 225 1.0 7.0 0.00 0.00 0.00 38 1015.9
20260901171607 96 238 0.0 4.0 0.00 0.00 0.00 35 1015.9
20260901170109 96 255 0.0 5.0 0.00 0.00 0.00 33 1015.9
20260901164630 97 248 1.0 6.0 0.00 0.00 0.00 32 1015.8
20260901163104 97 139 0.0 2.0 0.00 0.00 0.00 32 1015.8
20260901161610 97 236 1.0 4.0 0.00 0.00 0.00 31 1015.9
20260901160116 97 232 1.0 4.0 0.00 0.00 0.00 31 1015.9
20260901154603 97 329 1.0 5.0 0.00 0.00 0.00 31 1016.1
20260901153102 97 233 1.0 5.0 0.00 0.00 0.00 30 1016.0
20260901151555 97 338 0.0 4.0 0.00 0.00 0.00 30 1016.1
20260901150052 97 236 0.0 4.0 0.00 0.00 0.00 30 1016.0
20260901144551 98 310 0.0 3.0 0.00 0.00 0.00 29 1016.3
20260901143011 97 359 0.0 3.0 0.00 0.00 0.00 29 1016.4
20260901141512 97 250 0.0 6.0 0.00 0.00 0.00 29 1016.6
20260901140004 97 245 0.0 4.0 0.00 0.00 0.00 28 1016.6
20260901134504 96 260 1.0 4.0 0.00 0.00 0.00 29 1016.8
20260901133114 95 49 0.0 2.0 0.00 0.00 0.00 29 1016.9
20260901131619 96 21 0.0 2.0 0.00 0.00 0.00 28 1017.0
20260901130111 95 245 1.0 5.0 0.00 0.00 0.00 29 1017.1
20260901124610 93 346 0.0 3.0 0.00 0.00 0.00 29 1017.2
20260901123106 93 245 0.0 4.0 0.00 0.00 0.00 29 1017.2
20260901121609 93 131 0.0 3.0 0.00 0.00 0.00 30 1017.4
20260901120104 93 232 0.0 1.0 0.00 0.00 0.00 29 1017.5
20260901114602 92 212 0.0 3.0 0.00 0.00 0.00 30 1017.8
20260901113103 91 238 0.0 3.0 0.00 0.00 0.00 31 1017.8
20260901111556 91 27 0.0 2.0 0.00 0.00 0.00 31 1018.1
20260901110054 90 233 0.0 1.0 0.00 0.00 0.00 32 1018.0
20260901104550 89 246 0.0 1.0 0.00 0.00 0.00 33 1018.2
20260901103044 89 246 0.0 1.0 0.00 0.00 0.00 33 1018.4
20260901101558 87 136 0.0 1.0 0.00 0.00 0.00 34 1018.4
20260901100047 86 65 0.0 1.0 0.00 0.00 0.00 34 1018.5
20260901094545 86 347 0.0 3.0 0.00 0.00 0.00 34 1018.4
20260901093034 85 11 0.0 1.0 0.00 0.00 0.00 36 1018.4
20260901091553 84 228 0.0 1.0 0.00 0.00 0.00 39 1018.3
20260901090037 84 228 0.0 1.0 0.00 0.00 0.00 38 1018.3
20260901084539 83 228 0.0 1.0 0.00 0.00 0.00 41 1018.2
20260901083039 82 228 0.0 1.0 0.00 0.00 0.00 42 1018.2
20260901081614 82 228 0.0 0.0 0.00 0.00 0.00 43 1018.1
20260901080214 82 145 0.0 0.0 0.00 0.00 0.00 45 1018.1
20260901074610 81 145 0.0 0.0 0.00 0.00 0.00 46 1018.0
20260901073106 77 145 0.0 1.0 0.00 0.00 0.00 51 1017.9
20260901071602 76 149 0.0 1.0 0.00 0.00 0.00 52 1017.8